Regional Weather Roundup
Issued by NWS

Home | Current Version | Previous Version | Graphics & Text | Print | Product List | Glossary On
Versions: 1 2 3 4 5 6 7 8 9 10 11 12 13 14 15 16 17 18 19 20 21 22 23 24 25 26 27 28
000
ASUS45 KTFX 232310
RWRMT
MONTANA REGIONAL WEATHER ROUNDUP
NATIONAL WEATHER SERVICE GREAT FALLS MT
400 PM MST THU FEB 23 2017

NOTE: "FAIR" INDICATES FEW OR NO CLOUDS BELOW 12000 FEET WITH NO
SIGNIFICANT WEATHER AND/OR OBSTRUCTIONS TO VISIBILITY.

MTZ001>007-043-240000-
WEST OF THE DIVIDE

CITY           SKY/WX    TMP DP  RH WIND       PRES   REMARKS
KALISPELL      CLOUDY    36  21  54 W8        29.94S WCI  30
MISSOULA         N/A     36  22  56 N9        29.93S WCI  29
BUTTE          LGT SNOW  26  17  68 W7        29.80R WCI  18
MULLAN PASS      N/A     22  18  85 VRB3      29.85S
ANACONDA         N/A     28  10  47 N13G20    29.84R WCI  18
DEER LODGE       N/A     30  14  51 N9        29.89R WCI  22
EUREKA           N/A     30  21  69 E5        29.98F
HAMILTON         N/A     36  19  51 N15       29.88S WCI  26
LIBBY            N/A     37  18  44 NW6       29.96F
$$

MTZ008-052>055-240000-
SOUTHWEST MONTANA

CITY           SKY/WX    TMP DP  RH WIND       PRES   REMARKS
BOZEMAN        PTSUNNY   32  16  51 E8        29.84R WCI  25
DILLON         CLOUDY    30  16  56 NE20G26   29.76R WCI  17
W YELLOWSTONE  PTSUNNY   25  14  63 E12       29.72R WCI  14
ENNIS          CLOUDY    30  12  47 NE16      29.79R WCI  19
$$

MTZ009-010-012-014-046-048-049-054-240000-
EAST SLOPES AND CENTRAL MONTANA

CITY           SKY/WX    TMP DP  RH WIND       PRES   REMARKS
CUT BANK       CLOUDY    25  18  74 SE6       29.96S WCI  18
GREAT FALLS    CLOUDY    26  20  77 N12       29.97S WCI  16
MALMSTROM AFB  FLURRIES  27  24  87 N12       29.98F WCI  16
HELENA         PTSUNNY   32  21  64 N15       29.90S WCI  22
$$

MTZ011-013-016-021-045-047-050-051-240000-
NORTH CENTRAL MONTANA

CITY           SKY/WX    TMP DP  RH WIND       PRES   REMARKS
HAVRE          CLOUDY    28  23  81 NE13      30.04F WCI  17
LEWISTOWN      FLURRIES  24  20  84 E6        29.95S WCI  17
N BAR RANCH    MIX PCPN  21  18  86 SE5       29.97S
CHINOOK          N/A     28  21  74 E8        30.07S WCI  20
FORT BENTON      N/A     28  23  80 MISG        N/A
$$

MTZ017>020-022>027-061-062-240000-
NORTHEAST MONTANA

CITY           SKY/WX    TMP DP  RH WIND       PRES   REMARKS
GLASGOW        CLOUDY    27  21  78 E12       30.08R WCI  17
JORDAN           N/A     32  26  78 E10       30.02S WCI  24
SIDNEY         FLURRIES  28  24  85 NE9       30.09R WCI  19
WOLF POINT     CLOUDY    28  21  75 E8        30.11R WCI  20
PLENTYWOOD       N/A     25  16  68 NE6       30.10R WCI  18
POPLAR           N/A     27  18  69 NE7       30.12R WCI  19
$$

MTZ028>42-056>058-240000-
SOUTHCENTRAL AND SOUTHEAST MONTANA

CITY           SKY/WX    TMP DP  RH WIND       PRES   REMARKS
BAKER          CLOUDY    30  23  75 NE16      29.99R WCI  19
BILLINGS       CLOUDY    27  21  78 NE12      29.95R WCI  17
LIVINGSTON     CLOUDY    24  18  77 E23       29.87R WCI   9
MILES CITY     CLOUDY    31  24  75 NE14      30.00S WCI  21
BIG TIMBER     CLOUDY    23  19  86 E10       29.95R WCI  12
FORSYTH          N/A     30  25  80 NE8       29.98S WCI  23
$$

REGIONAL REPORTS...DAKOTAS

CITY           SKY/WX    TMP DP  RH WIND       PRES   REMARKS
WILLISTON      CLOUDY    27  14  58 NE7       30.11R WCI  19
MINOT            N/A     26  14  60 N10       30.10S WCI  16
DICKINSON      FOG       22  21  96 NE15      30.01R VSB 1   WCI   9
BEACH            N/A    N/A N/A N/A MISG        N/A
CROSBY           N/A     25  16  68 NE3       30.13S
TIOGA            N/A     25  16  68 NE6       30.10S WCI  18
WATFORD CITY   CLOUDY    25  16  68 NE9       30.10R WCI  15
BISMARCK       CLOUDY    29  24  82 NE15      30.06R WCI  18
GRAND FORKS    CLOUDY    25  12  58 N18       30.10S WCI  11
FARGO          CLOUDY    28  20  71 N22       30.06R WCI  14
BUFFALO SD       N/A     30  25  81 NE18      29.88R WCI  18
RAPID CITY     LGT SNOW  27  24  89 N16       29.88S FOG     WCI  15
$$

REGIONAL REPORTS...WYOMING/IDAHO/WASHINGTON

CITY           SKY/WX    TMP DP  RH WIND       PRES   REMARKS
GILLETTE       LGT SNOW  25  22  88 NE17      29.85R FOG     WCI  12
SHERIDAN       CLOUDY    29  21  72 E12       29.89R WCI  19
BUFFALO WY     SNOW      26  21  81 N13G21    29.84R VSB 1/2 WCI  15
CODY           CLOUDY    22  17  81 N17G24    29.84R WCI   8
YELLOWSTONE LA   N/A     18   5  57 VRB3      29.71R
IDAHO FALLS    LGT SNOW  26  24  92 S16       29.75R VSB 1   WCI  14
SALMON         CLOUDY    34  19  55 N7        29.80R WCI  28
BOISE          CLOUDY    33  25  72 W26G33    29.92R WCI  20
SPOKANE          N/A     32  23  69 W5        30.05S
$$

REGIONAL REPORTS...ALBERTA

CITY           SKY/WX    TMP DP  RH WIND       PRES   REMARKS
EDMONTON       PTSUNNY   28  14  54 W2        30.01F
CALGARY        PTSUNNY   27  18  69 SE13      29.94S WCI  16
LETHBRIDGE     PTSUNNY   28  18  64 SE6       29.99F WCI  22
MEDICINE HAT   PTSUNNY   25  16  68 E9        30.07S WCI  15
WATERTON GATE    N/A     23  16  74 NE5         N/A
CARDSTON         N/A     27  16  63 E5          N/A
MILK RIVER       N/A     25  21  86 S5          N/A
ONEFOUR          N/A     23  16  74 E10         N/A  WCI  12
$$

REGIONAL REPORTS...SASKATCHEWAN

CITY           SKY/WX    TMP DP  RH WIND       PRES   REMARKS
SWIFT CURRENT  CLOUDY    25  14  63 VRB2      30.06R
REGINA         FLURRIES  27  16  63 NW13      30.09S WCI  16
SASKATOON      PTSUNNY   27  14  59 NW8       30.11S WCI  18
CYPRESS HILLS    N/A     19  10  68 SE7         N/A  WCI  10
VAL MARIE        N/A     27  18  69 E5          N/A
ROCKGLEN         N/A     23  14  68 NE2         N/A
ASSINIBOIA       N/A     28  10  47 W2          N/A
$$




USA.gov is the U.S. government's official web portal to all federal, state and local government web resources and services.